• In Romania
  • List of Countries
  • For 7 days
  • Water Temperature
  • Satellite Maps
  • Weather Map
  • Weather Widgets
  • user-avatar
    Login

    Hourly Weather Passo Fundo

    Today, 23 January, Tuesday

    Time Temperature Precipitation Wind Pressure Humidity
    00:00 +21°C° 0 mm 3 mps 702 mmHg 95%
    01:00 +21°C° 0.3 mm 3 mps 702 mmHg 95%
    02:00 +21°C° 0.3 mm 3 mps 702 mmHg 96%
    03:00 +20°C° 0 mm 3 mps 702 mmHg 96%
    04:00 +20°C° 1.1 mm 3 mps 702 mmHg 96%
    05:00 +20°C° 1.1 mm 3 mps 702 mmHg 97%
    06:00 +20°C° 1.1 mm 3 mps 702 mmHg 97%
    07:00 +22°C° 0.7 mm 3 mps 703 mmHg 94%
    08:00 +23°C° 0.7 mm 4 mps 703 mmHg 92%
    09:00 +26°C° 0.7 mm 4 mps 703 mmHg 89%
    10:00 +27°C° 0.5 mm 4 mps 703 mmHg 85%
    11:00 +28°C° 0.5 mm 4 mps 704 mmHg 81%
    12:00 +28°C° 0.5 mm 4 mps 704 mmHg 77%
    13:00 +29°C° 0.8 mm 4 mps 704 mmHg 78%
    14:00 +29°C° 0.8 mm 4 mps 703 mmHg 79%
    15:00 +29°C° 0.8 mm 3 mps 703 mmHg 80%
    16:00 +28°C° 0.9 mm 3 mps 703 mmHg 84%
    17:00 +27°C° 0.9 mm 2 mps 703 mmHg 87%
    18:00 +26°C° 0.9 mm 1 mps 703 mmHg 91%
    19:00 +25°C° 0.1 mm 1 mps 703 mmHg 91%
    20:00 +24°C° 0.1 mm 1 mps 703 mmHg 92%
    21:00 +23°C° 0.1 mm 2 mps 703 mmHg 92%
    22:00 +23°C° 0.1 mm 2 mps 703 mmHg 92%
    23:00 +21°C° 0.1 mm 2 mps 703 mmHg 91%

    Tomorrow, 24 January, Wednesday

    Time Temperature Precipitation Wind Pressure Humidity
    00:00 +21°C° 0.1 mm 2 mps 704 mmHg 91%
    01:00 +21°C° 0 mm 2 mps 703 mmHg 91%
    02:00 +21°C° 0 mm 2 mps 703 mmHg 92%
    03:00 +21°C° 0 mm 2 mps 703 mmHg 92%
    04:00 +21°C° 0.1 mm 2 mps 703 mmHg 93%
    05:00 +21°C° 0.1 mm 2 mps 703 mmHg 93%
    06:00 +21°C° 0.1 mm 2 mps 703 mmHg 94%
    07:00 +23°C° 0.3 mm 2 mps 704 mmHg 92%
    08:00 +24°C° 0.3 mm 2 mps 704 mmHg 90%
    09:00 +26°C° 0.3 mm 3 mps 705 mmHg 88%
    10:00 +26°C° 2.1 mm 3 mps 705 mmHg 88%
    11:00 +26°C° 2.1 mm 3 mps 705 mmHg 88%
    12:00 +26°C° 2.1 mm 3 mps 706 mmHg 89%
    13:00 +27°C° 0.2 mm 3 mps 706 mmHg 84%
    14:00 +28°C° 0.2 mm 2 mps 705 mmHg 78%
    15:00 +28°C° 0.2 mm 1 mps 705 mmHg 73%
    16:00 +28°C° 0.1 mm 1 mps 705 mmHg 77%
    17:00 +27°C° 0.1 mm 1 mps 705 mmHg 81%
    18:00 +26°C° 0.1 mm 1 mps 704 mmHg 85%
    19:00 +25°C° 0.1 mm 1 mps 705 mmHg 87%
    20:00 +24°C° 0.1 mm 1 mps 705 mmHg 90%
    21:00 +23°C° 0.1 mm 1 mps 705 mmHg 93%
    22:00 +23°C° 0 mm 1 mps 705 mmHg 93%
    23:00 +23°C° 0 mm 2 mps 705 mmHg 93%

    Day after tomorrow, 25 January, Thursday

    Time Temperature Precipitation Wind Pressure Humidity
    00:00 +23°C° 0 mm 2 mps 705 mmHg 93%
    01:00 +21°C° 0.1 mm 2 mps 705 mmHg 93%
    02:00 +21°C° 0.1 mm 2 mps 705 mmHg 94%
    03:00 +21°C° 0.1 mm 2 mps 704 mmHg 94%
    04:00 +21°C° 0.7 mm 2 mps 704 mmHg 95%
    05:00 +21°C° 0.7 mm 2 mps 704 mmHg 95%
    06:00 +21°C° 0.7 mm 2 mps 704 mmHg 96%
    07:00 +21°C° 0.1 mm 2 mps 705 mmHg 95%
    08:00 +21°C° 0.1 mm 3 mps 705 mmHg 94%
    09:00 +22°C° 0.1 mm 3 mps 706 mmHg 94%
    10:00 +23°C° 0.3 mm 4 mps 706 mmHg 90%
    11:00 +25°C° 0.3 mm 4 mps 706 mmHg 87%
    12:00 +26°C° 0.3 mm 4 mps 706 mmHg 84%
    13:00 +27°C° 0.8 mm 4 mps 705 mmHg 82%
    14:00 +27°C° 0.8 mm 4 mps 705 mmHg 79%
    15:00 +28°C° 0.8 mm 4 mps 704 mmHg 77%
    16:00 +27°C° 0.4 mm 4 mps 704 mmHg 79%
    17:00 +26°C° 0.4 mm 4 mps 704 mmHg 82%
    18:00 +26°C° 0.4 mm 4 mps 704 mmHg 84%
    19:00 +23°C° 0 mm 4 mps 704 mmHg 86%
    20:00 +22°C° 0 mm 5 mps 704 mmHg 87%
    21:00 +21°C° 0 mm 5 mps 704 mmHg 89%
    22:00 +20°C° 0 mm 5 mps 705 mmHg 89%
    23:00 +20°C° 0 mm 5 mps 705 mmHg 89%

    26 January, Friday

    Time Temperature Precipitation Wind Pressure Humidity
    00:00 +20°C° 0 mm 5 mps 705 mmHg 89%
    01:00 +19°C° 0 mm 5 mps 704 mmHg 90%
    02:00 +19°C° 0 mm 4 mps 704 mmHg 90%
    03:00 +19°C° 0 mm 4 mps 703 mmHg 90%
    04:00 +19°C° 0 mm 4 mps 703 mmHg 91%
    05:00 +18°C° 0 mm 4 mps 703 mmHg 91%
    06:00 +18°C° 0 mm 4 mps 703 mmHg 92%
    07:00 +20°C° 0 mm 4 mps 704 mmHg 88%
    08:00 +21°C° 0 mm 4 mps 704 mmHg 85%
    09:00 +23°C° 0 mm 4 mps 705 mmHg 81%
    10:00 +25°C° 0.1 mm 4 mps 705 mmHg 78%
    11:00 +26°C° 0.1 mm 4 mps 705 mmHg 75%
    12:00 +28°C° 0.1 mm 4 mps 705 mmHg 72%
    13:00 +28°C° 0.9 mm 4 mps 704 mmHg 75%
    14:00 +27°C° 0.9 mm 4 mps 703 mmHg 78%
    15:00 +27°C° 0.9 mm 3 mps 703 mmHg 81%
    16:00 +27°C° 0.6 mm 3 mps 703 mmHg 83%
    17:00 +26°C° 0.6 mm 3 mps 702 mmHg 86%
    18:00 +26°C° 0.6 mm 3 mps 702 mmHg 88%
    19:00 +25°C° 0.2 mm 3 mps 703 mmHg 90%
    20:00 +22°C° 0.2 mm 3 mps 703 mmHg 91%
    21:00 +21°C° 0.2 mm 3 mps 703 mmHg 93%
    22:00 +20°C° 0 mm 4 mps 703 mmHg 93%
    23:00 +20°C° 0 mm 4 mps 703 mmHg 93%

    27 January, Saturday

    Time Temperature Precipitation Wind Pressure Humidity
    00:00 +19°C° 0 mm 4 mps 703 mmHg 93%
    01:00 +19°C° 0 mm 4 mps 703 mmHg 92%
    02:00 +18°C° 0 mm 4 mps 702 mmHg 92%
    03:00 +18°C° 0 mm 4 mps 702 mmHg 92%
    04:00 +18°C° 0 mm 4 mps 702 mmHg 92%
    05:00 +18°C° 0 mm 4 mps 702 mmHg 92%
    06:00 +18°C° 0 mm 3 mps 702 mmHg 93%
    07:00 +19°C° 0 mm 4 mps 703 mmHg 88%
    08:00 +21°C° 0 mm 4 mps 703 mmHg 84%
    09:00 +22°C° 0 mm 4 mps 704 mmHg 80%
    10:00 +25°C° 0 mm 4 mps 703 mmHg 76%
    11:00 +27°C° 0 mm 3 mps 703 mmHg 72%
    12:00 +28°C° 0 mm 3 mps 703 mmHg 68%
    13:00 +28°C° 0.4 mm 3 mps 702 mmHg 70%
    14:00 +29°C° 0.4 mm 2 mps 702 mmHg 71%
    15:00 +29°C° 0.4 mm 2 mps 701 mmHg 72%
    16:00 +28°C° 0.8 mm 1 mps 701 mmHg 76%
    17:00 +28°C° 0.8 mm 1 mps 701 mmHg 80%
    18:00 +28°C° 0.8 mm 1 mps 701 mmHg 84%
    19:00 +26°C° 0.4 mm 1 mps 701 mmHg 86%
    20:00 +24°C° 0.4 mm 1 mps 701 mmHg 89%
    21:00 +23°C° 0.4 mm 2 mps 702 mmHg 91%
    22:00 +23°C° 0 mm 2 mps 702 mmHg 92%
    23:00 +21°C° 0 mm 3 mps 701 mmHg 92%

    28 January, Sunday

    Time Temperature Precipitation Wind Pressure Humidity
    00:00 +21°C° 0 mm 4 mps 701 mmHg 93%
    01:00 +20°C° 0 mm 4 mps 701 mmHg 92%
    02:00 +20°C° 0 mm 4 mps 701 mmHg 92%
    03:00 +20°C° 0 mm 5 mps 700 mmHg 92%
    04:00 +20°C° 0 mm 4 mps 701 mmHg 92%
    05:00 +19°C° 0 mm 4 mps 701 mmHg 92%
    06:00 +19°C° 0 mm 3 mps 701 mmHg 92%
    07:00 +20°C° 0.7 mm 3 mps 701 mmHg 91%
    08:00 +21°C° 0.7 mm 3 mps 702 mmHg 91%
    09:00 +22°C° 0.7 mm 3 mps 702 mmHg 91%
    10:00 +24°C° 0.6 mm 3 mps 702 mmHg 89%
    11:00 +25°C° 0.6 mm 3 mps 702 mmHg 87%
    12:00 +26°C° 0.6 mm 3 mps 702 mmHg 85%
    13:00 +27°C° 1.1 mm 2 mps 702 mmHg 84%
    14:00 +27°C° 1.1 mm 2 mps 701 mmHg 83%
    15:00 +27°C° 1.1 mm 2 mps 701 mmHg 83%
    16:00 +26°C° 0.9 mm 2 mps 701 mmHg 87%
    17:00 +25°C° 0.9 mm 2 mps 701 mmHg 91%
    18:00 +25°C° 0.9 mm 1 mps 700 mmHg 95%
    19:00 +24°C° 0.2 mm 1 mps 700 mmHg 96%
    20:00 +23°C° 0.2 mm 1 mps 701 mmHg 96%
    21:00 +23°C° 0.2 mm 1 mps 701 mmHg 97%
    22:00 +22°C° 0.2 mm 1 mps 701 mmHg 97%
    23:00 +22°C° 0.2 mm 1 mps 701 mmHg 96%
    Show more